Location: Hackbridge
(51.3833°N, 0.1500°W)
Time: 19:37:37
(UTC+00:00)

Cosmos 921 Rocket - Pass Details

Date: 13 October 2019
Orbit: 573 x 631 km, 75.8° (Epoch: 21 November)

Event Time Altitude Azimuth Distance (km) Brightness Sun altitude
Rises 17:48:54 0° 156° (SSE) 2,913 6.3 -6.5°
Reaches altitude 10° 17:51:43 10° 138° (SE) 2,009 5.3 -6.9°
Maximum altitude 17:54:46 18° 95° (E) 1,541 4.5 -7.4°
Drops below altitude 10° 17:57:49 10° 52° (NE) 2,010 5.2 -7.8°
Sets 18:00:38 0° 34° (NE) 2,914 6.2 -8.3°
